Time,TemperatureF,DewpointF,PressureIn,WindDirection,WindDirectionDegrees,WindSpeedMPH,WindSpeedGustMPH,Humidity,HourlyPrecipIn,Conditions,Clouds,dailyrainin,SolarRadiationWatts/m^2,SoftwareType,DateUTC
2013-09-04 00:22:00,78.0,32.0,-100.00,West,264,11.0,16.0,19,0.00,,,0.00,564.000000,,2013-09-04 00:22:00,
2013-09-04 00:32:00,78.0,32.0,-100.00,West,264,11.0,16.0,19,0.00,,,0.00,564.000000,,2013-09-04 00:32:00,
2013-09-04 00:42:00,78.0,32.0,-100.00,West,264,11.0,16.0,19,0.00,,,0.00,564.000000,,2013-09-04 00:42:00,
2013-09-04 00:52:00,78.0,32.0,-100.00,West,264,11.0,16.0,19,0.00,,,0.00,564.000000,,2013-09-04 00:52:00,
2013-09-04 01:22:00,77.0,33.0,-100.00,West,265,11.0,16.0,20,0.00,,,0.00,414.000000,,2013-09-04 01:22:00,
2013-09-04 01:32:00,77.0,33.0,-100.00,West,265,11.0,16.0,20,0.00,,,0.00,414.000000,,2013-09-04 01:32:00,
2013-09-04 01:42:00,77.0,33.0,-100.00,West,265,11.0,16.0,20,0.00,,,0.00,414.000000,,2013-09-04 01:42:00,
2013-09-04 01:52:00,77.0,33.0,-100.00,West,265,11.0,16.0,20,0.00,,,0.00,414.000000,,2013-09-04 01:52:00,
2013-09-04 02:42:00,68.0,45.0,-100.00,WNW,288,8.0,19.0,43,0.00,,,0.00,175.000000,,2013-09-04 02:42:00,
2013-09-04 02:52:00,68.0,45.0,-100.00,WNW,288,8.0,19.0,43,0.00,,,0.00,175.000000,,2013-09-04 02:52:00,
2013-09-04 03:22:00,63.0,44.0,-100.00,NNW,340,3.0,14.0,49,0.00,,,0.00,25.000000,,2013-09-04 03:22:00,
2013-09-04 03:34:00,63.0,44.0,-100.00,NNW,340,3.0,14.0,49,0.00,,,0.00,25.000000,,2013-09-04 03:34:00,
2013-09-04 03:44:00,63.0,44.0,-100.00,NNW,340,3.0,14.0,49,0.00,,,0.00,25.000000,,2013-09-04 03:44:00,
2013-09-04 03:54:00,63.0,44.0,-100.00,NNW,340,3.0,14.0,49,0.00,,,0.00,25.000000,,2013-09-04 03:54:00,
2013-09-04 04:24:00,60.0,43.0,-100.00,East,84,3.0,4.0,54,0.00,,,0.00,1.000000,,2013-09-04 04:24:00,
2013-09-04 04:33:00,60.0,43.0,-100.00,East,84,3.0,4.0,54,0.00,,,0.00,1.000000,,2013-09-04 04:33:00,
2013-09-04 04:44:00,60.0,43.0,-100.00,East,84,3.0,4.0,54,0.00,,,0.00,1.000000,,2013-09-04 04:44:00,
2013-09-04 04:54:00,60.0,43.0,-100.00,East,84,3.0,4.0,54,0.00,,,0.00,1.000000,,2013-09-04 04:54:00,
2013-09-04 05:23:00,59.0,43.0,-100.00,NNE,26,5.0,7.0,56,0.00,,,0.00,1.000000,,2013-09-04 05:23:00,
2013-09-04 05:34:00,59.0,43.0,-100.00,NNE,26,5.0,7.0,56,0.00,,,0.00,1.000000,,2013-09-04 05:34:00,
2013-09-04 05:43:00,59.0,43.0,-100.00,NNE,26,5.0,7.0,56,0.00,,,0.00,1.000000,,2013-09-04 05:43:00,
2013-09-04 05:52:00,59.0,43.0,-100.00,NNE,26,5.0,7.0,56,0.00,,,0.00,1.000000,,2013-09-04 05:52:00,
2013-09-04 06:22:00,56.0,44.0,-100.00,ENE,68,2.0,7.0,65,0.00,,,0.00,1.000000,,2013-09-04 06:22:00,
2013-09-04 06:32:00,56.0,44.0,-100.00,ENE,68,2.0,7.0,65,0.00,,,0.00,1.000000,,2013-09-04 06:32:00,
2013-09-04 06:42:00,56.0,44.0,-100.00,ENE,68,2.0,7.0,65,0.00,,,0.00,1.000000,,2013-09-04 06:42:00,
2013-09-04 06:52:00,56.0,44.0,-100.00,ENE,68,2.0,7.0,65,0.00,,,0.00,1.000000,,2013-09-04 06:52:00,
2013-09-04 07:22:00,53.0,44.0,-100.00,ENE,76,0.0,3.0,71,0.00,,,0.00,1.000000,,2013-09-04 07:22:00,
2013-09-04 07:32:00,53.0,44.0,-100.00,ENE,76,0.0,3.0,71,0.00,,,0.00,1.000000,,2013-09-04 07:32:00,
2013-09-04 07:42:00,53.0,44.0,-100.00,ENE,76,0.0,3.0,71,0.00,,,0.00,1.000000,,2013-09-04 07:42:00,
2013-09-04 07:52:00,53.0,44.0,-100.00,ENE,76,0.0,3.0,71,0.00,,,0.00,1.000000,,2013-09-04 07:52:00,
2013-09-04 08:22:00,52.0,43.0,-100.00,East,82,3.0,4.0,71,0.00,,,0.00,1.000000,,2013-09-04 08:22:00,
2013-09-04 08:32:00,52.0,43.0,-100.00,East,82,3.0,4.0,71,0.00,,,0.00,1.000000,,2013-09-04 08:32:00,
2013-09-04 08:43:00,52.0,43.0,-100.00,East,82,3.0,4.0,71,0.00,,,0.00,1.000000,,2013-09-04 08:43:00,
2013-09-04 08:52:00,52.0,43.0,-100.00,East,82,3.0,4.0,71,0.00,,,0.00,1.000000,,2013-09-04 08:52:00,
2013-09-04 09:22:00,49.0,42.0,-100.00,East,87,2.0,4.0,77,0.00,,,0.00,1.000000,,2013-09-04 09:22:00,
2013-09-04 09:33:00,49.0,42.0,-100.00,East,87,2.0,4.0,77,0.00,,,0.00,1.000000,,2013-09-04 09:33:00,
2013-09-04 09:43:00,49.0,42.0,-100.00,East,87,2.0,4.0,77,0.00,,,0.00,1.000000,,2013-09-04 09:43:00,
2013-09-04 09:53:00,49.0,42.0,-100.00,East,87,2.0,4.0,77,0.00,,,0.00,1.000000,,2013-09-04 09:53:00,
2013-09-04 10:23:00,46.0,41.0,-100.00,East,79,4.0,7.0,82,0.00,,,0.00,1.000000,,2013-09-04 10:23:00,
2013-09-04 10:32:00,46.0,41.0,-100.00,East,79,4.0,7.0,82,0.00,,,0.00,1.000000,,2013-09-04 10:32:00,
2013-09-04 10:42:00,46.0,41.0,-100.00,East,79,4.0,7.0,82,0.00,,,0.00,1.000000,,2013-09-04 10:42:00,
2013-09-04 10:52:00,46.0,41.0,-100.00,East,79,4.0,7.0,82,0.00,,,0.00,1.000000,,2013-09-04 10:52:00,
2013-09-04 11:22:00,46.0,42.0,-100.00,NE,54,4.0,6.0,85,0.00,,,0.00,1.000000,,2013-09-04 11:22:00,
2013-09-04 11:32:00,46.0,42.0,-100.00,NE,54,4.0,6.0,85,0.00,,,0.00,1.000000,,2013-09-04 11:32:00,
2013-09-04 11:42:00,46.0,42.0,-100.00,NE,54,4.0,6.0,85,0.00,,,0.00,1.000000,,2013-09-04 11:42:00,
2013-09-04 11:51:00,46.0,42.0,-100.00,NE,54,4.0,6.0,85,0.00,,,0.00,1.000000,,2013-09-04 11:51:00,
2013-09-04 12:21:00,45.0,43.0,-100.00,ENE,76,4.0,6.0,91,0.00,,,0.00,1.000000,,2013-09-04 12:21:00,
2013-09-04 12:32:00,45.0,43.0,-100.00,ENE,76,4.0,6.0,91,0.00,,,0.00,1.000000,,2013-09-04 12:32:00,
2013-09-04 12:42:00,45.0,43.0,-100.00,ENE,76,4.0,6.0,91,0.00,,,0.00,1.000000,,2013-09-04 12:42:00,
2013-09-04 12:52:00,45.0,43.0,-100.00,ENE,76,4.0,6.0,91,0.00,,,0.00,1.000000,,2013-09-04 12:52:00,
2013-09-04 13:21:00,43.0,40.0,-100.00,ENE,67,5.0,6.0,90,0.00,,,0.00,1.000000,,2013-09-04 13:21:00,
2013-09-04 13:31:00,43.0,40.0,-100.00,ENE,67,5.0,6.0,90,0.00,,,0.00,1.000000,,2013-09-04 13:31:00,
2013-09-04 13:42:00,43.0,40.0,-100.00,ENE,67,5.0,6.0,90,0.00,,,0.00,1.000000,,2013-09-04 13:42:00,
2013-09-04 13:52:00,43.0,40.0,-100.00,ENE,67,5.0,6.0,90,0.00,,,0.00,1.000000,,2013-09-04 13:52:00,
2013-09-04 14:21:00,42.0,40.0,-100.00,ENE,70,6.0,7.0,94,0.00,,,0.00,3.000000,,2013-09-04 14:21:00,
2013-09-04 14:32:00,42.0,40.0,-100.00,ENE,70,6.0,7.0,94,0.00,,,0.00,3.000000,,2013-09-04 14:32:00,
2013-09-04 14:42:00,42.0,40.0,-100.00,ENE,70,6.0,7.0,94,0.00,,,0.00,3.000000,,2013-09-04 14:42:00,
2013-09-04 14:51:00,42.0,40.0,-100.00,ENE,70,6.0,7.0,94,0.00,,,0.00,3.000000,,2013-09-04 14:51:00,
2013-09-04 15:22:00,47.0,42.0,-100.00,ENE,77,6.0,8.0,82,0.00,,,0.00,100.000000,,2013-09-04 15:22:00,
2013-09-04 15:33:00,47.0,42.0,-100.00,ENE,77,6.0,8.0,82,0.00,,,0.00,100.000000,,2013-09-04 15:33:00,
2013-09-04 15:43:00,47.0,42.0,-100.00,ENE,77,6.0,8.0,82,0.00,,,0.00,100.000000,,2013-09-04 15:43:00,
2013-09-04 15:53:00,47.0,42.0,-100.00,ENE,77,6.0,8.0,82,0.00,,,0.00,100.000000,,2013-09-04 15:53:00,
2013-09-04 16:23:00,54.0,43.0,-100.00,ENE,59,5.0,9.0,66,0.00,,,0.00,179.000000,,2013-09-04 16:23:00,
2013-09-04 16:34:00,54.0,43.0,-100.00,ENE,59,5.0,9.0,66,0.00,,,0.00,179.000000,,2013-09-04 16:34:00,
2013-09-04 16:43:00,54.0,43.0,-100.00,ENE,59,5.0,9.0,66,0.00,,,0.00,179.000000,,2013-09-04 16:43:00,
2013-09-04 16:53:00,54.0,43.0,-100.00,ENE,59,5.0,9.0,66,0.00,,,0.00,179.000000,,2013-09-04 16:53:00,
2013-09-04 17:42:00,65.0,46.0,-100.00,SSW,204,2.0,7.0,50,0.00,,,0.00,480.000000,,2013-09-04 17:42:00,
2013-09-04 17:52:00,65.0,46.0,-100.00,SSW,204,2.0,7.0,50,0.00,,,0.00,480.000000,,2013-09-04 17:52:00,
2013-09-04 18:21:00,68.0,46.0,-100.00,WSW,243,7.0,11.0,46,0.00,,,0.00,644.000000,,2013-09-04 18:21:00,
2013-09-04 18:32:00,68.0,46.0,-100.00,WSW,243,7.0,11.0,46,0.00,,,0.00,644.000000,,2013-09-04 18:32:00,
2013-09-04 18:42:00,68.0,46.0,-100.00,WSW,243,7.0,11.0,46,0.00,,,0.00,644.000000,,2013-09-04 18:42:00,
2013-09-04 18:52:00,68.0,46.0,-100.00,WSW,243,7.0,11.0,46,0.00,,,0.00,644.000000,,2013-09-04 18:52:00,
2013-09-04 19:22:00,72.0,41.0,-100.00,SSW,194,8.0,15.0,33,0.00,,,0.00,773.000000,,2013-09-04 19:22:00,
2013-09-04 19:32:00,72.0,41.0,-100.00,SSW,194,8.0,15.0,33,0.00,,,0.00,773.000000,,2013-09-04 19:32:00,
2013-09-04 19:42:00,72.0,41.0,-100.00,SSW,194,8.0,15.0,33,0.00,,,0.00,773.000000,,2013-09-04 19:42:00,
2013-09-04 19:52:00,72.0,41.0,-100.00,SSW,194,8.0,15.0,33,0.00,,,0.00,773.000000,,2013-09-04 19:52:00,
2013-09-04 20:22:00,75.0,41.0,-100.00,SW,234,6.0,15.0,29,0.00,,,0.00,849.000000,,2013-09-04 20:22:00,
2013-09-04 20:32:00,75.0,41.0,-100.00,SW,234,6.0,15.0,29,0.00,,,0.00,849.000000,,2013-09-04 20:32:00,
2013-09-04 20:43:00,75.0,41.0,-100.00,SW,234,6.0,15.0,29,0.00,,,0.00,849.000000,,2013-09-04 20:43:00,
2013-09-04 20:53:00,75.0,41.0,-100.00,SW,234,6.0,15.0,29,0.00,,,0.00,849.000000,,2013-09-04 20:53:00,
2013-09-04 21:22:00,76.0,38.0,-100.00,West,267,9.0,15.0,25,0.00,,,0.00,861.000000,,2013-09-04 21:22:00,
2013-09-04 21:34:00,76.0,38.0,-100.00,West,267,9.0,15.0,25,0.00,,,0.00,861.000000,,2013-09-04 21:34:00,
2013-09-04 21:44:00,76.0,38.0,-100.00,West,267,9.0,15.0,25,0.00,,,0.00,861.000000,,2013-09-04 21:44:00,
2013-09-04 21:54:00,76.0,38.0,-100.00,West,267,9.0,15.0,25,0.00,,,0.00,861.000000,,2013-09-04 21:54:00,
2013-09-04 22:23:00,78.0,38.0,-100.00,West,272,11.0,18.0,24,0.00,,,0.00,816.000000,,2013-09-04 22:23:00,
2013-09-04 22:33:00,78.0,38.0,-100.00,West,272,11.0,18.0,24,0.00,,,0.00,816.000000,,2013-09-04 22:33:00,
2013-09-04 22:43:00,78.0,38.0,-100.00,West,272,11.0,18.0,24,0.00,,,0.00,816.000000,,2013-09-04 22:43:00,
2013-09-04 22:54:00,78.0,38.0,-100.00,West,272,11.0,18.0,24,0.00,,,0.00,816.000000,,2013-09-04 22:54:00,
2013-09-04 23:22:00,80.0,38.0,-100.00,SW,228,9.0,19.0,22,0.00,,,0.00,745.000000,,2013-09-04 23:22:00,
2013-09-04 23:34:00,80.0,38.0,-100.00,SW,228,9.0,19.0,22,0.00,,,0.00,745.000000,,2013-09-04 23:34:00,
2013-09-04 23:42:00,80.0,38.0,-100.00,SW,228,9.0,19.0,22,0.00,,,0.00,745.000000,,2013-09-04 23:42:00,
2013-09-04 23:52:00,80.0,38.0,-100.00,SW,228,9.0,19.0,22,0.00,,,0.00,745.000000,,2013-09-04 23:52:00,